Tracking 21992 objects as of 28-Nov-2020
HD Live streaming from Space Station
objects crossing your sky now

STARLINK-1835

Track STARLINK-1835 now!
10-day predictions
STARLINK-1835 is classified as:


NORAD ID: 46782
Int'l Code: 2020-074AV
Perigee: 386.2 km
Apogee: 387.5 km
Inclination: 53.1 °
Period: 92.1 minutes
Semi major axis: 6757 km
RCS: Unknown
Launch date: October 24, 2020
Source: United States (US)
Launch site: AIR FORCE EASTERN TEST RANGE (AFETR)
aabbcc
Your satellite tracking list
Your tracking list is empty




NASA's NSSDC Master Catalog

Two Line Element Set (TLE):
1 46782U 20074AV  20333.83334491 -.00020031  00000-0 -21344-3 0  9991
2 46782  53.0542 347.7417 0000995  73.9350  22.6288 15.62757550  5748
Source of the keplerian elements: AFSPC